Crane Lake, MN

9:52 PM CDT on September 18, 2019 (GMT -0500)
Crane Lake

Weather History for KCDD - May, 2019

Change the Weather History Date:

Friday, May 31, 2019

  Actual Average Record
Temperature  
Mean Temperature 54 °F -  
Max Temperature 66 °F 65 °F 80 °F (1997)
Min Temperature 42 °F 41 °F 5 °F (1999)
Degree Days  
Heating Degree Days 11    
Growing Degree Days 4 (Base 50)    
Moisture  
Dew Point 44 °F    
Average Humidity 71    
Maximum Humidity 100    
Minimum Humidity 42    
Precipitation  
Precipitation 0.02 in - - ()
Sea Level Pressure  
Sea Level Pressure 29.81 in    
Wind  
Wind Speed 2 mph (NNW)    
Max Wind Speed 9 mph    
Max Gust Speed -    
Visibility 10 miles    
Events Rain    
Averages and records for this station are not official NWS values.
T = Trace of Precipitation, MM = Missing Value Source: NWS Daily Summary

Daily Weather History Graph

Daily Weather History Graph

Search for Another Location

Airport or City:

Astronomy

May. 31, 2019 Rise Set
Actual Time 5:14 AM CDT 9:01 PM CDT
Civil Twilight 4:34 AM CDT 9:41 PM CDT
Nautical Twilight 3:39 AM CDT 10:36 PM CDT
Astronomical Twilight 2:19 AM CDT 11:57 PM CDT
Moon 4:08 AM CDT (5/31) 5:54 PM CDT (5/31)
Length of Visible Light 17h 07m
Length of Day
15h 47m
Waning Crescent, 8% of the Moon is Illuminated
May 31
Waning Crescent
Jun 3
New
Jun 10
First Quarter
Jun 17
Full
Jun 25
Last Quarter

Hourly Weather History & Observations

Time (CDT) Temp. Windchill Dew Point Humidity Pressure Visibility Wind Dir Wind Speed Gust Speed Precip Events Conditions
12:48 AM 44.6 °F - 44.6 °F 100% 29.71 in 10.0 mi Calm Calm - N/A   Clear
12:55 AM 44.6 °F - 44.6 °F 100% 29.71 in 10.0 mi Calm Calm - N/A   Clear
1:48 AM 44.6 °F - 44.6 °F 100% 29.71 in 10.0 mi Calm Calm - N/A   Clear
2:55 AM 44.6 °F 40.2 °F 44.6 °F 100% 29.74 in 10.0 mi NW 8.1 mph - 0.02 in   Scattered Clouds
3:08 AM 46.4 °F - 46.4 °F 100% 29.70 in 7.0 mi Calm Calm - N/A Rain Light Rain
4:08 AM 44.6 °F - 44.6 °F 100% 29.67 in 10.0 mi Calm Calm - N/A   Clear
4:28 AM 46.4 °F 45.2 °F 44.6 °F 93% 29.66 in 10.0 mi SSE 3.5 mph - N/A   Clear
4:55 AM 44.6 °F - 44.6 °F 100% 29.67 in 7.0 mi Calm Calm - N/A   Clear
5:08 AM 42.8 °F - 42.8 °F 100% 29.67 in 10.0 mi Calm Calm - N/A   Clear
5:55 AM 42.8 °F - 42.8 °F 100% 29.68 in 10.0 mi Calm Calm - N/A   Clear
6:55 AM 46.4 °F - 46.4 °F 100% 29.71 in 10.0 mi Calm Calm - N/A   Clear
7:28 AM 50.0 °F - 46.4 °F 87% 29.71 in 10.0 mi Calm Calm - N/A   Clear
7:55 AM 51.8 °F - 46.4 °F 82% 29.71 in 10.0 mi Calm Calm - N/A   Clear
8:55 AM 53.6 °F - 46.4 °F 77% 29.75 in 10.0 mi North 4.6 mph - N/A   Clear
9:55 AM 55.4 °F - 44.6 °F 67% 29.78 in 10.0 mi North 5.8 mph - N/A   Clear
10:28 AM 57.2 °F - 44.6 °F 63% 29.79 in 10.0 mi North 4.6 mph - N/A   Clear
10:48 AM 59.0 °F - 44.6 °F 59% 29.79 in 10.0 mi North 5.8 mph - N/A   Clear
10:55 AM 60.8 °F - 44.6 °F 55% 29.79 in 10.0 mi North 5.8 mph - N/A   Clear
11:28 AM 62.6 °F - 44.6 °F 52% 29.81 in 10.0 mi North 9.2 mph - N/A   Clear
11:55 AM 60.8 °F - 46.4 °F 59% 29.83 in 10.0 mi North 9.2 mph - N/A   Clear
12:55 PM 59.0 °F - 46.4 °F 63% 29.84 in 10.0 mi NNW 4.6 mph - N/A   Clear
1:55 PM 60.8 °F - 44.6 °F 55% 29.85 in 10.0 mi NW 6.9 mph - N/A   Clear
2:08 PM 60.8 °F - 44.6 °F 55% 29.85 in 10.0 mi NW 6.9 mph - N/A   Clear
2:48 PM 62.6 °F - 42.8 °F 48% 29.85 in 10.0 mi North 6.9 mph - N/A   Clear
2:55 PM 60.8 °F - 42.8 °F 52% 29.85 in 10.0 mi North 5.8 mph - N/A   Clear
3:28 PM 62.6 °F - 44.6 °F 52% 29.85 in 10.0 mi NNW 5.8 mph - N/A   Clear
3:55 PM 62.6 °F - 44.6 °F 52% 29.85 in 10.0 mi Calm Calm - N/A   Clear
4:08 PM 62.6 °F - 44.6 °F 52% 29.85 in 10.0 mi North 4.6 mph - N/A   Clear
4:28 PM 62.6 °F - 42.8 °F 48% 29.84 in 10.0 mi Calm Calm - N/A   Clear
4:48 PM 62.6 °F - 46.4 °F 55% 29.84 in 10.0 mi Calm Calm - N/A   Clear
5:08 PM 62.6 °F - 44.6 °F 52% 29.84 in 10.0 mi Calm Calm - N/A   Clear
5:23 PM 62.6 °F - 44.6 °F 52% 29.84 in 10.0 mi Calm Calm - N/A   Clear
5:48 PM 64.4 °F - 46.4 °F 52% 29.84 in 10.0 mi Calm Calm - N/A   Clear
5:55 PM 64.4 °F - 44.6 °F 49% 29.84 in 10.0 mi Calm Calm - N/A   Clear
6:48 PM 66.2 °F - 42.8 °F 43% 29.83 in 10.0 mi WNW 3.5 mph - N/A   Clear
7:11 PM 66.2 °F - 42.8 °F 43% 29.83 in 10.0 mi NNW 4.6 mph - N/A   Clear
7:48 PM 64.4 °F - 42.8 °F 45% 29.84 in 10.0 mi NNW 5.8 mph - N/A   Clear
7:55 PM 64.4 °F - 41.0 °F 42% 29.84 in 10.0 mi North 4.6 mph - N/A   Clear
8:28 PM 60.8 °F - 42.8 °F 52% 29.85 in 10.0 mi North 3.5 mph - N/A   Clear
8:48 PM 60.8 °F - 42.8 °F 52% 29.85 in 10.0 mi Calm Calm - N/A   Clear
8:55 PM 59.0 °F - 42.8 °F 55% 29.86 in 10.0 mi Calm Calm - N/A   Clear
9:08 PM 57.2 °F - 42.8 °F 59% 29.86 in 10.0 mi Calm Calm - N/A   Clear
9:55 PM 48.2 °F - 44.6 °F 87% 29.88 in 10.0 mi Calm Calm - N/A   Clear
10:28 PM 46.4 °F - 42.8 °F 87% 29.89 in 10.0 mi Calm Calm - N/A   Clear
10:44 PM 44.6 °F - 42.8 °F 93% 29.89 in 10.0 mi Calm Calm - N/A   Clear
10:58 PM 44.6 °F - 42.8 °F 93% 29.89 in 10.0 mi Calm Calm - N/A   Clear
11:08 PM 42.8 °F - 41.0 °F 93% 29.89 in 10.0 mi Calm Calm - N/A   Clear
11:21 PM 42.8 °F - 41.0 °F 93% 29.89 in 10.0 mi Calm Calm - N/A   Clear
11:31 PM 42.8 °F - 41.0 °F 93% 29.89 in 10.0 mi Calm Calm - N/A   Clear
11:57 PM 42.8 °F - 41.0 °F 93% 29.89 in 10.0 mi Calm Calm - N/A   Clear